This is the latest recevied weather packets stored in our database for station/object K4M9. If no packets are shown the sender has not sent any weather packets the latest 10 day(s).
| Time | Temp. | Humidity | Pressure | Rain* | Wind** | Luminosity | Snow |
|---|---|---|---|---|---|---|---|
| 1777711405 | 10° C | 99% | 1016.9 hPa | - | - | - | - |
| 1777710804 | 10.56° C | 93% | 1016.9 hPa | - | - | - | - |
| 1777710208 | 10.56° C | 93% | 1016.9 hPa | - | - | - | - |
| 1777709606 | 10.56° C | 93% | 1016.9 hPa | - | - | - | - |
| 1777709005 | 10.56° C | 93% | 1016.9 hPa | - | - | - | - |
| 1777708409 | 10.56° C | 93% | 1017.3 hPa | - | - | - | - |
| 1777707808 | 10.56° C | 93% | 1017.3 hPa | - | - | - | - |
| 1777707211 | 10.56° C | 87% | 1017.6 hPa | - | - | - | - |
| 1777706611 | 10.56° C | 87% | 1017.6 hPa | - | - | - | - |
| 1777706007 | 10.56° C | 81% | 1017.6 hPa | - | - | - | - |
| 1777705410 | 10.56° C | 81% | 1017.6 hPa | - | - | - | - |
| 1777704808 | 10.56° C | 93% | 1017.9 hPa | - | - | - | - |
| 1777704207 | 10.56° C | 93% | 1017.9 hPa | - | - | - | - |
| 1777703610 | 11.67° C | 87% | 1018.3 hPa | - | - | - | - |
| 1777703009 | 11.67° C | 87% | 1018.3 hPa | - | - | - | - |
| 1777702405 | 11.67° C | 87% | 1018.3 hPa | - | - | - | - |
| 1777701808 | 11.67° C | 87% | 1018.3 hPa | - | - | - | - |
| 1777701209 | 12.78° C | 82% | 1017.9 hPa | - | - | - | - |
| 1777700607 | 12.78° C | 82% | 1017.9 hPa | - | - | - | - |
| 1777700008 | 12.78° C | 76% | 1017.9 hPa | - | - | - | - |
| 1777699406 | 12.78° C | 76% | 1017.9 hPa | - | - | - | - |
| 1777698806 | 12.78° C | 71% | 1017.6 hPa | - | - | - | - |
| 1777698209 | 12.78° C | 71% | 1017.6 hPa | - | - | - | - |
| 1777697607 | 13.89° C | 67% | 1017.6 hPa | - | - | - | - |
| 1777697007 | 15° C | 54% | 1017.6 hPa | - | - | - | - |
* Rain since midnight (hover to see other rain measurements)
** Current wind speed in m/s (hover to see current wind gust speed)